GW3035 Weather Reports


time (UTC)temp
C
wind
direction
speed
KPH
gust
KPH
rain 1hr
cm
rain 24hr
cm
rain mn
cm
humidity
%
barometer
mb
20260506203531 7 0 1.6 1.6 0.00 1.35 0.00 82 1012.1
20260506203034 7 0 1.6 1.6 0.00 1.35 0.00 82 1012.0
20260506202531 7 0 3.2 3.2 0.00 1.35 0.00 81 1011.9
20260506202030 7 0 1.6 3.2 0.00 1.35 0.00 80 1011.9
20260506201533 7 0 1.6 3.2 0.00 1.35 0.00 80 1011.8
20260506201033 7 0 1.6 3.2 0.00 1.35 0.00 79 1011.6
20260506200534 7 0 1.6 3.2 0.00 1.35 0.00 78 1011.5
20260506200030 7 0 1.6 3.2 0.00 1.35 0.00 78 1011.5
20260506195534 7 0 1.6 3.2 0.00 1.35 0.00 77 1011.4
20260506195033 7 0 1.6 4.8 0.00 1.35 0.00 77 1011.2
20260506194533 8 0 1.6 3.2 0.00 1.35 0.00 77 1011.2
20260506194036 8 0 1.6 1.6 0.00 1.35 0.00 78 1011.2
20260506193534 8 0 1.6 3.2 0.00 1.35 0.00 76 1010.9
20260506193034 8 0 0.0 1.6 0.00 1.35 0.00 76 1010.9
20260506192530 8 0 1.6 1.6 0.00 1.35 0.00 75 1010.8
20260506192030 8 0 1.6 1.6 0.00 1.35 0.00 75 1010.7
20260506191530 9 0 0.0 3.2 0.00 1.35 0.00 73 1010.7
20260506191031 9 0 1.6 3.2 0.00 1.35 0.00 74 1010.6
20260506190531 10 0 0.0 3.2 0.00 1.35 0.00 72 1010.5
20260506190033 10 0 1.6 3.2 0.00 1.35 0.00 71 1010.5
20260506185533 10 0 0.0 1.6 0.00 1.35 0.00 71 1010.4
20260506185030 10 0 1.6 4.8 0.00 1.35 0.00 70 1010.2
20260506184533 10 0 1.6 6.4 0.00 1.35 0.00 69 1010.0
20260506184033 10 0 3.2 4.8 0.00 1.35 0.00 66 1010.1
20260506183537 11 0 1.6 4.8 0.00 1.35 0.00 65 1010.0
20260506183030 11 0 4.8 8.0 0.00 1.35 0.00 62 1009.8
20260506182537 11 0 1.6 9.7 0.00 1.37 0.00 62 1009.7
20260506182033 11 0 3.2 6.4 0.00 1.37 0.00 61 1009.5
20260506181530 11 0 4.8 4.8 0.00 1.37 0.00 60 1009.4
20260506181031 11 0 1.6 8.0 0.00 1.37 0.00 62 1009.3
20260506180530 11 0 1.6 6.4 0.00 1.42 0.00 64 1009.3
20260506180030 11 0 1.6 3.2 0.00 1.45 0.00 66 1009.2
20260506175533 11 0 0.0 3.2 0.00 1.45 0.00 67 1009.2
20260506175030 11 0 3.2 6.4 0.00 1.45 0.00 67 1009.3
20260506174539 11 0 0.0 3.2 0.00 1.45 0.00 67 1009.1
20260506174030 11 0 1.6 3.2 0.00 1.45 0.00 67 1009.1
20260506173533 11 0 1.6 6.4 0.00 1.45 0.00 67 1009.1
20260506173033 12 0 3.2 3.2 0.00 1.47 0.00 65 1009.0
20260506172533 12 0 0.0 3.2 0.00 1.50 0.00 66 1008.9
20260506172039 12 0 1.6 3.2 0.00 1.50 0.00 65 1008.9
20260506171533 12 0 0.0 4.8 0.00 1.52 0.00 64 1008.9
20260506171034 12 0 1.6 4.8 0.00 1.52 0.00 64 1008.9
20260506170530 12 0 1.6 4.8 0.00 1.52 0.00 64 1008.7
20260506170030 12 0 1.6 4.8 0.00 1.52 0.00 62 1008.6
20260506165530 13 0 0.0 8.0 0.00 1.52 0.00 61 1008.7
20260506165033 13 0 1.6 4.8 0.00 1.52 0.00 60 1008.5
20260506164537 13 0 3.2 6.4 0.00 1.52 0.00 58 1008.5
20260506164030 13 0 4.8 8.0 0.00 1.52 0.00 57 1008.3
20260506163530 13 0 3.2 8.0 0.00 1.52 0.00 56 1008.4
20260506163030 13 0 4.8 8.0 0.00 1.52 0.00 57 1008.5
20260506162530 13 0 3.2 12.9 0.00 1.52 0.00 55 1008.4
20260506162030 14 0 1.6 6.4 0.00 1.55 0.00 56 1008.3
20260506161530 14 0 1.6 6.4 0.00 1.55 0.00 52 1008.4
20260506161030 15 0 4.8 6.4 0.00 1.57 0.00 53 1008.1
20260506160536 15 0 4.8 6.4 0.00 1.57 0.00 55 1008.1
20260506160040 15 0 3.2 4.8 0.00 1.60 0.00 51 1008.1
20260506155540 15 0 1.6 6.4 0.00 1.65 0.00 53 1007.9
20260506155033 15 0 3.2 6.4 0.00 1.65 0.00 49 1008.1
20260506154533 15 0 3.2 8.0 0.00 1.68 0.00 51 1007.9
20260506154036 15 0 4.8 9.7 0.00 1.68 0.00 51 1007.9
20260506153533 15 0 1.6 6.4 0.00 1.68 0.00 52 1007.9
20260506153033 15 0 1.6 4.8 0.00 1.68 0.00 49 1007.9
20260506152533 16 0 0.0 3.2 0.00 1.68 0.00 49 1007.7
20260506152031 16 0 3.2 4.8 0.00 1.68 0.00 47 1007.9
20260506151530 16 0 1.6 4.8 0.00 1.68 0.00 50 1007.6
20260506151036 16 0 3.2 11.3 0.00 1.68 0.00 45 1007.8
20260506150530 17 265 1.6 4.8 0.00 1.68 0.00 48 1007.7
20260506150033 17 46 1.6 6.4 0.00 1.68 0.00 45 1007.6
20260506145533 17 54 4.8 6.4 0.00 1.68 0.00 43 1007.7
20260506145039 17 308 4.8 6.4 0.00 1.68 0.00 42 1007.6
20260506144530 17 254 4.8 6.4 0.00 1.68 0.00 45 1007.7
20260506144036 17 246 1.6 6.4 0.00 1.68 0.00 42 1007.7
20260506143530 17 190 1.6 4.8 0.00 1.68 0.00 47 1007.6
20260506143030 17 295 1.6 9.7 0.00 1.68 0.00 42 1007.6
20260506142530 17 182 4.8 8.0 0.00 1.68 0.00 43 1007.7
20260506142030 17 301 3.2 6.4 0.00 1.68 0.00 43 1007.7
20260506141533 17 219 4.8 6.4 0.00 1.68 0.00 46 1007.7
20260506141030 17 279 1.6 12.9 0.00 1.68 0.00 42 1007.7
20260506140536 17 224 4.8 6.4 0.00 1.68 0.00 43 1007.7
20260506140036 16 0 3.2 6.4 0.00 1.68 0.00 44 1007.7
20260506135534 16 0 6.4 12.9 0.00 1.68 0.00 38 1007.9
20260506135034 16 0 3.2 6.4 0.00 1.70 0.00 39 1007.7
20260506134530 16 0 1.6 9.7 0.00 1.70 0.00 37 1007.9
20260506134030 16 0 4.8 12.9 0.00 1.73 0.00 42 1007.8
20260506133530 16 0 3.2 9.7 0.00 1.73 0.00 42 1007.8
20260506133036 16 317 4.8 4.8 0.00 1.75 0.00 44 1007.9
20260506132534 16 303 3.2 8.0 0.00 1.75 0.00 50 1007.7
20260506132036 16 66 1.6 11.3 0.00 1.75 0.00 43 1007.8
20260506131533 16 94 3.2 12.9 0.00 1.75 0.00 43 1008.0
20260506131030 16 281 4.8 8.0 0.00 1.75 0.00 44 1007.5
20260506130531 16 0 1.6 6.4 0.00 1.75 0.00 44 1007.8
20260506130036 16 0 1.6 6.4 0.00 1.78 0.00 42 1007.7
20260506125533 16 0 4.8 4.8 0.00 1.78 0.00 42 1007.8
20260506125033 16 0 1.6 6.4 0.00 1.78 0.00 44 1007.8
20260506124530 16 0 4.8 8.0 0.00 1.78 0.00 45 1007.6
20260506124033 15 0 1.6 12.9 0.00 1.78 0.00 46 1007.6
20260506123537 16 0 4.8 6.4 0.00 1.78 0.00 44 1007.7
20260506123030 15 0 3.2 9.7 0.00 1.78 0.00 42 1007.4
20260506122536 16 0 4.8 8.0 0.00 1.78 0.00 39 1007.4
20260506122030 16 310 3.2 8.0 0.00 1.80 0.00 44 1007.4
20260506121531 15 0 1.6 6.4 0.00 1.80 0.00 50 1007.2
20260506121033 15 0 3.2 14.5 0.00 1.80 0.00 42 1007.2
20260506120536 15 0 4.8 8.0 0.00 1.80 0.00 45 1007.3
20260506120033 15 0 3.2 4.8 0.00 1.80 0.00 47 1007.1
20260506115531 15 0 3.2 4.8 0.00 1.80 0.00 48 1007.1
20260506115030 15 0 1.6 9.7 0.00 1.80 0.00 46 1006.9
20260506114530 15 0 3.2 8.0 0.00 1.80 0.00 55 1007.1
20260506114030 15 0 1.6 8.0 0.00 1.80 0.00 53 1007.1
20260506113536 15 0 1.6 6.4 0.00 1.80 0.00 55 1007.1
20260506113033 15 0 6.4 9.7 0.00 1.80 0.00 52 1007.2
20260506112530 15 0 1.6 6.4 0.00 1.80 0.00 54 1006.9
20260506112033 15 0 1.6 9.7 0.00 1.83 0.00 57 1007.0
20260506111530 15 0 6.4 12.9 0.00 1.83 0.00 60 1007.0
20260506111036 15 0 3.2 4.8 0.00 1.83 0.00 60 1006.9
20260506110530 14 0 1.6 9.7 0.00 1.83 0.00 60 1006.9
20260506110036 14 0 1.6 8.0 0.00 1.83 0.00 59 1006.9
20260506105539 14 0 3.2 6.4 0.00 1.83 0.00 59 1007.0
20260506105030 13 0 1.6 4.8 0.00 1.83 0.00 60 1006.8
20260506104533 13 0 3.2 6.4 0.00 1.83 0.00 61 1006.9
20260506104033 13 0 3.2 6.4 0.00 1.83 0.00 61 1007.0
20260506103533 13 0 1.6 8.0 0.00 1.83 0.00 63 1006.8
20260506103031 13 0 3.2 8.0 0.00 1.83 0.00 61 1006.8
20260506102537 13 0 1.6 4.8 0.00 1.83 0.00 64 1006.9
20260506102036 13 0 1.6 6.4 0.00 1.83 0.00 68 1006.8
20260506101534 13 0 1.6 4.8 0.00 1.83 0.00 69 1006.8
20260506101036 13 0 3.2 12.9 0.00 1.83 0.00 69 1006.8
20260506100530 12 0 3.2 8.0 0.00 1.83 0.00 68 1006.8
20260506100033 12 0 4.8 6.4 0.00 1.83 0.00 67 1006.8
20260506095533 12 0 1.6 8.0 0.00 1.85 0.00 69 1006.8
20260506095030 12 0 1.6 4.8 0.00 1.85 0.00 68 1006.7
20260506094531 12 0 3.2 4.8 0.00 1.85 0.00 70 1006.7
20260506094030 12 0 1.6 4.8 0.00 1.85 0.00 69 1006.6
20260506093533 12 0 1.6 6.4 0.00 1.85 0.00 71 1006.7
20260506093033 11 0 3.2 3.2 0.00 1.85 0.00 72 1006.5
20260506092533 11 0 1.6 8.0 0.00 1.85 0.00 72 1006.7
20260506092030 11 0 1.6 6.4 0.00 1.85 0.00 74 1006.6
20260506091533 11 0 3.2 6.4 0.00 1.85 0.00 76 1006.5
20260506091030 11 0 3.2 4.8 0.00 1.85 0.00 75 1006.5
20260506090533 10 0 3.2 8.0 0.00 1.85 0.00 78 1006.6
20260506090031 10 0 6.4 8.0 0.00 1.88 0.00 78 1006.5
20260506085536 10 0 1.6 3.2 0.00 1.88 0.00 79 1006.6
20260506085030 10 0 1.6 6.4 0.00 1.88 0.00 81 1006.5
20260506084539 10 0 0.0 6.4 0.00 1.88 0.00 80 1006.3
20260506084030 10 0 1.6 6.4 0.00 1.88 0.00 82 1006.4
20260506083531 9 0 1.6 6.4 0.00 1.88 0.00 81 1006.4
20260506083036 9 0 1.6 4.8 0.00 1.88 0.00 82 1006.2
20260506082530 8 0 0.0 6.4 0.00 1.88 0.00 84 1006.1
20260506082033 8 0 1.6 4.8 0.00 1.88 0.00 87 1006.2
20260506081536 8 0 1.6 6.4 0.00 1.88 0.00 87 1006.1
20260506081030 8 0 1.6 8.0 0.00 1.88 0.00 88 1006.2
20260506080536 8 0 1.6 3.2 0.00 1.88 0.00 90 1006.3
20260506073030 6 0 3.2 4.8 0.00 1.88 0.00 96 1006.5
20260506072533 6 0 1.6 8.0 0.00 1.88 0.00 96 1006.5
20260506072030 6 0 4.8 8.0 0.00 1.88 0.00 96 1006.4
20260506071530 6 0 3.2 4.8 0.00 1.88 0.00 97 1006.3
20260506071033 6 0 1.6 3.2 0.00 1.88 0.00 97 1006.5
20260506070533 6 0 0.0 4.8 0.00 1.88 0.00 97 1006.5
20260506062033 5 0 0.0 1.6 0.00 1.98 0.00 96 1007.1
20260506061530 5 0 0.0 3.2 0.00 1.98 0.00 96 1007.0
20260506061033 5 0 0.0 1.6 0.00 1.98 0.00 96 1006.9
20260506060533 5 0 0.0 1.6 0.00 1.98 0.00 96 1007.0
20260506051031 5 0 1.6 3.2 0.00 1.98 0.00 96 1007.3
20260506050536 5 0 0.0 3.2 0.03 1.98 0.00 96 1007.3
20260506045033 5 0 0.0 1.6 0.08 2.01 0.00 96 1007.2
20260506044530 5 0 0.0 1.6 0.10 2.01 0.00 96 1007.2
20260506044033 5 0 1.6 1.6 0.18 2.01 0.00 96 1007.4
20260506043539 5 0 0.0 3.2 0.23 2.01 0.00 96 1007.3
20260506043031 5 0 1.6 3.2 0.30 2.01 0.00 96 1007.5
20260506042530 5 0 1.6 1.6 0.38 2.01 0.00 96 1007.5
20260506042039 5 0 0.0 1.6 0.46 2.01 0.00 96 1007.6
20260506041530 5 0 0.0 3.2 0.53 2.01 0.00 96 1007.6
20260506041030 5 0 3.2 6.4 0.53 1.98 0.00 96 1007.8
20260506040533 5 0 0.0 3.2 0.56 1.96 0.00 96 1007.8
20260506040036 5 0 0.0 1.6 0.58 1.96 0.00 96 1008.0
20260506035530 5 0 0.0 3.2 0.61 1.96 0.00 96 1007.9
20260506035038 5 0 1.6 3.2 0.58 1.93 0.00 96 1008.0
20260506034530 5 0 3.2 3.2 0.56 1.88 0.00 96 1008.0
20260506034033 5 0 0.0 1.6 0.48 1.83 0.00 96 1008.4
20260506033533 5 0 0.0 1.6 0.43 1.78 0.00 96 1008.2
20260506033030 5 0 0.0 1.6 0.36 1.68 0.00 96 1008.2
20260506032530 5 0 0.0 1.6 0.28 1.60 0.00 96 1008.3
20260506032033 5 0 0.0 1.6 0.28 1.57 0.00 96 1008.4
20260506031530 5 0 0.0 1.6 0.18 1.50 0.00 96 1008.5
20260506031036 5 0 0.0 3.2 0.18 1.47 0.00 96 1008.6
20260506030530 5 0 3.2 3.2 0.15 1.45 0.00 96 1008.7
20260506030036 5 0 0.0 1.6 0.10 1.42 0.00 96 1008.5
20260506025530 5 0 1.6 1.6 0.08 1.47 0.00 96 1008.5
20260506025030 5 0 0.0 1.6 0.10 1.55 0.00 96 1008.5
20260506024536 5 0 1.6 1.6 0.15 1.65 0.00 96 1008.6
20260506024030 5 0 1.6 3.2 0.15 1.73 0.00 96 1008.5
20260506023539 5 0 1.6 3.2 0.18 1.85 0.00 96 1008.6
20260506023033 5 0 0.0 0.0 0.15 1.91 0.00 96 1008.7
20260506022530 5 0 0.0 1.6 0.15 1.98 0.00 96 1008.8
20260506022036 5 0 0.0 3.2 0.10 2.01 0.00 96 1009.0
20260506021531 5 0 0.0 1.6 0.10 2.06 0.00 96 1009.2
20260506021036 5 0 0.0 1.6 0.08 2.08 0.00 96 1008.9
20260506020533 5 0 0.0 1.6 0.08 2.16 0.00 96 1009.0
20260506020036 5 0 0.0 1.6 0.08 2.21 0.00 96 1009.2
20260506015539 5 0 0.0 4.8 0.08 2.24 0.00 96 1009.2
20260506015030 5 0 3.2 4.8 0.05 2.26 0.00 96 1009.4
20260506014530 5 0 1.6 3.2 0.00 2.24 0.00 96 1009.4
20260506014033 5 0 0.0 3.2 0.03 2.31 0.00 96 1009.3
20260506013530 5 0 1.6 3.2 0.00 2.34 0.00 96 1009.3
20260506013033 5 0 0.0 1.6 0.00 2.41 0.00 96 1009.3
20260506012533 5 0 0.0 0.0 0.00 2.49 0.00 96 1009.5
20260506012030 5 0 0.0 1.6 0.00 2.51 0.00 96 1009.6
20260506011536 5 0 0.0 3.2 0.03 2.57 0.00 95 1009.6
20260506011030 5 0 1.6 3.2 0.05 2.62 0.00 95 1009.7
20260506010536 5 0 3.2 4.8 0.08 2.69 0.00 96 1009.8
20260506010039 5 0 1.6 1.6 0.08 2.72 0.00 96 1010.0
20260506005532 5 0 0.0 1.6 0.10 2.77 0.00 96 1010.0
20260506005033 6 0 0.0 1.6 0.13 2.79 0.00 96 1010.0
20260506004536 6 0 0.0 1.6 0.18 2.82 0.00 96 1010.2
20260506004033 6 0 0.0 1.6 0.18 2.82 0.00 96 1010.3
20260506003529 5 0 0.0 0.0 0.20 2.84 0.00 96 1010.6
20260506003033 6 0 0.0 0.0 0.28 2.84 0.00 96 1010.7
20260506002530 5 0 0.0 1.6 0.30 2.84 0.00 96 1010.7
20260506002033 6 0 1.6 1.6 0.33 2.87 0.00 96 1010.9
20260506001530 6 0 0.0 1.6 0.33 2.84 0.00 96 1010.8
20260506001030 6 0 0.0 3.2 0.36 2.82 0.00 96 1011.0
20260506000536 6 0 0.0 3.2 0.36 2.82 0.00 96 1011.0
20260506000039 6 0 1.6 3.2 0.33 2.79 0.00 96 1011.0
20260505235530 6 0 0.0 1.6 0.33 2.77 0.00 96 1011.0
20260505235030 6 0 0.0 1.6 0.33 2.74 0.00 96 1011.2
20260505234530 6 0 0.0 1.6 0.28 2.72 0.00 96 1011.3
20260505234033 6 0 0.0 1.6 0.28 2.72 0.00 95 1011.7
20260505233532 6 0 0.0 3.2 0.25 2.67 0.00 95 1011.7
20260505233036 6 0 0.0 3.2 0.18 2.62 0.00 95 1011.6
20260505232530 6 0 1.6 4.8 0.15 2.57 0.00 96 1011.6
20260505232033 6 0 1.6 4.8 0.13 2.57 0.00 96 1011.8
20260505231532 6 0 1.6 4.8 0.10 2.59 0.00 96 1011.8
20260505231030 6 0 4.8 4.8 0.08 2.59 0.00 96 1011.8
20260505230532 6 0 1.6 1.6 0.05 2.62 0.00 96 1011.9
20260505230030 6 0 0.0 4.8 0.05 2.62 0.00 96 1012.0
20260505225530 6 0 1.6 3.2 0.03 2.62 0.00 96 1012.0
20260505225038 6 0 1.6 1.6 0.00 2.64 0.00 96 1012.2
20260505224533 6 0 0.0 3.2 0.00 2.67 0.00 96 1012.0
20260505224030 6 0 3.2 3.2 0.00 2.67 0.00 96 1011.9
20260505223536 6 0 1.6 3.2 0.00 2.67 0.00 96 1011.9
20260505223032 6 0 0.0 1.6 0.00 2.69 0.00 97 1011.9
20260505222530 6 0 0.0 1.6 0.00 2.72 0.00 96 1011.6
20260505222033 6 0 1.6 1.6 0.00 2.74 0.00 97 1011.7
20260505221533 6 0 0.0 3.2 0.00 2.77 0.00 96 1011.7
20260505221033 6 0 1.6 3.2 0.00 2.82 0.00 96 1011.8
20260505220529 6 0 0.0 1.6 0.00 2.82 0.00 97 1011.9
20260505220030 6 0 0.0 0.0 0.00 2.84 0.00 96 1011.9
20260505215530 6 0 0.0 0.0 0.00 2.90 0.00 96 1012.0
20260505215035 6 0 0.0 3.2 0.00 2.90 0.00 96 1012.0
20260505214530 6 0 0.0 1.6 0.00 2.90 0.00 96 1012.0
20260505214029 6 0 0.0 0.0 0.00 2.90 0.00 96 1012.1
20260505213530 6 0 0.0 3.2 0.00 2.90 0.00 97 1012.2
20260505213033 6 0 1.6 3.2 0.00 2.90 0.00 97 1011.9
20260505212532 6 0 0.0 3.2 0.00 2.90 0.00 96 1012.0
20260505212036 6 0 1.6 1.6 0.00 2.90 0.00 96 1012.1
20260505211535 5 0 0.0 0.0 0.00 2.90 0.00 96 1012.1
20260505211032 5 0 0.0 1.6 0.00 2.90 0.00 96 1012.3
20260505210530 5 0 1.6 3.2 0.00 2.90 0.00 95 1012.4
20260505210033 5 0 0.0 1.6 0.00 2.90 0.00 95 1012.4
20260505205529 5 0 1.6 1.6 0.00 2.90 0.00 95 1012.3
20260505205033 6 0 1.6 1.6 0.00 2.90 0.00 95 1012.3
20260505204530 6 0 0.0 1.6 0.00 2.95 0.00 95 1012.3
20260505204033 6 0 0.0 3.2 0.00 2.97 0.00 96 1012.3